Flag for Belgium Weather past 2 weeks in Mechelen, Belgium

Now
64 °F

Fog.


Feels Like: 64 °F
Forecast: 61 / 78 °F
Wind: 2 mph from North

Location: Brussels National Airport

Current Time: Jul 28, 2014 at 9:32:47 AM

Latest Report: Jul 28, 2014 at 8:50 AM


Visibility: 3 mi

Pressure: 29.89 "Hg

Humidity: 94%

Dew point: 63 °F

Location of MechelenLocation

Historic Weather in Mechelen — Graph

°F

Mechelen temperature yesterday

Maximum temperature yesterday: 81 °F (at 4:20 PM)
Minimum temperature yesterday: 64 °F (at 5:50 AM)
Average temperature yesterday: 70 °F

Past Weeks' High & Low Weather Summary

 TemperatureHumidityPressure
High90 °F (Jul 18, 3:50 PM)100% (Jul 16, 3:50 AM)30.18 "Hg (Jul 16, 3:50 AM)
Low54 °F (Jul 15, 2:20 AM)33% (Jul 19, 2:20 PM)29.74 "Hg (Jul 13, 4:20 PM)
Average69 °F73%29.99 "Hg
* Reported Jul 13 8:20 AM — Jul 28 8:20 AM, Mechelen, Weather by CustomWeather, © 2014

Note: Actual official high and low records may vary slightly from our data, if they occured in-between our weather recording intervals... More about our weather records

Advertising

Mechelen weather history for previous 24 hours

 ConditionsComfort  
Time TempWeatherWind HumidityBarometerVisibility
8:20 AM
Jul 28
64 °FFog.2 mph88%29.89 "Hg2 mi
7:50 AM64 °FLight rain. Fog.3 mph94%29.89 "Hg2 mi
7:20 AM64 °FThunderstorms. Fog.2 mph88%29.89 "Hg2 mi
6:50 AM64 °FSprinkles. Fog.2 mph88%29.89 "Hg2 mi
6:20 AM64 °FFog.3 mph88%29.89 "Hg3 mi
5:50 AM63 °FFog.1 mph94%29.89 "Hg2 mi
5:20 AM63 °FFog.No wind94%29.89 "Hg2 mi
4:50 AM64 °FFog.No wind88%29.92 "Hg2 mi
4:20 AM64 °FFog.2 mph88%29.92 "Hg1 mi
3:50 AM64 °FFog.1 mph88%29.92 "Hg2 mi
3:20 AM64 °FFog.1 mph88%29.95 "Hg2 mi
2:50 AM64 °FFog.No wind88%29.95 "Hg2 mi
2:20 AM64 °FFog.No wind88%29.95 "Hg2 mi
1:50 AM64 °FFog.1 mph88%29.95 "Hg2 mi
1:20 AM64 °FFog.3 mph94%29.98 "Hg2 mi
12:50 AM64 °FFog.1 mph94%29.98 "Hg2 mi
12:20 AM66 °FClear.1 mph88%29.98 "Hg4 mi
11:50 PM
Jul 27
66 °FClear.3 mph83%29.98 "Hg4 mi
11:20 PM64 °FClear.1 mph88%29.98 "Hg10 mi
10:50 PM64 °FClear.No wind94%30.01 "Hg10 mi
10:20 PM64 °FSunny.No wind94%30.01 "Hg10 mi
9:50 PM66 °FPassing clouds.2 mph88%30.01 "HgN/A
9:20 PM66 °FPassing clouds.5 mph88%29.98 "HgN/A
8:50 PM68 °FPassing clouds.5 mph83%29.98 "HgN/A
8:20 PM68 °FSunny.3 mph88%29.98 "Hg10 mi
7:50 PM68 °FPassing clouds.1 mph83%29.98 "HgN/A
7:20 PM68 °FPassing clouds.3 mph78%29.98 "HgN/A
6:50 PM70 °FPassing clouds.6 mph69%29.98 "HgN/A
6:20 PM70 °FSprinkles. Scattered clouds.6 mph64%30.01 "HgN/A
5:50 PM75 °FSprinkles. Scattered clouds.5 mph57%29.98 "Hg5 mi
5:20 PM77 °FScattered clouds.5 mph54%29.98 "HgN/A
4:50 PM79 °FScattered clouds.3 mph48%29.98 "HgN/A
4:20 PM81 °FPassing clouds.3 mph51%30.01 "HgN/A
3:50 PM79 °FPassing clouds.5 mph51%30.01 "HgN/A
3:20 PM79 °FPassing clouds.3 mph54%30.01 "HgN/A
2:50 PM79 °FPassing clouds.2 mph54%30.01 "HgN/A
2:20 PM79 °FPassing clouds.2 mph54%30.01 "HgN/A
1:50 PM79 °FPassing clouds.1 mph54%30.01 "HgN/A
1:20 PM77 °FPassing clouds.2 mph54%30.04 "HgN/A
12:50 PM75 °FPassing clouds.5 mph61%30.04 "HgN/A
12:20 PM75 °FPassing clouds.1 mph65%30.04 "HgN/A
11:50 AM73 °FPassing clouds.3 mph65%30.04 "HgN/A
11:20 AM73 °FPassing clouds.2 mph69%30.04 "HgN/A
10:50 AM72 °FPassing clouds.2 mph69%30.04 "HgN/A
10:20 AM70 °FPassing clouds.2 mph78%30.04 "Hg6 mi
9:50 AM70 °FPassing clouds.3 mph78%30.04 "Hg4 mi
9:20 AM70 °FPassing clouds.1 mph78%30.04 "Hg4 mi
Weather by CustomWeather, © 2014

See weather overviewHow to use our weather pages